Weather in Kavalerskiy

Russia / Rostov Oblast     46°20′36″N   40°27′05″E
temp.,
°C
wind,
m/s
gust,
m/s
humid.,
%
clouds,
%
prec.,
mm/h
press.,
hPa
HPBL,
m
6 march, sat
sat600:00+3ssw497593 0.0 1016227
03:00+3sw497792 0.0 1016211
06:00+3sw4177866 0.0 1014513
09:00+6wsw6166964 0.0 1014790
12:00+10wsw81364100 0.0 10141005
15:00+11w61262100 0.0 10121443
18:00+8nw5981100 0.9 1012556
21:00+1n91395100 1.1 1016742
7 march, sun
sun700:000nnw61079100 0.9 10201084
03:00−2nnw596883 1.0 1024726
06:00−3nw36610 0.0 1026634
09:00−1wnw34500 0.0 1027767
12:00+2w56440 0.0 10251487
15:00+3w57450 0.0 10231606
18:00+1wsw49590 0.0 1022457
21:00−1wsw5116511 0.0 1022566
8 march, mon
mon800:000wsw613620 0.0 1021602
03:000wsw613560 0.0 1020539
06:000sw612640 0.0 1019539
09:00+2wsw811540 0.0 10181049
12:00+5wsw710533 0.0 10171451
15:00+6wsw7105147 0.0 10161679
18:00+3wsw4965100 0.0 1016364
21:00+1sw4107783 0.0 1016268
9 march, tue
tue900:00+1sw5128445 0.0 1016388
03:00+1sw5108373 0.0 1015342
06:00+1sw51189100 0.0 1015519
09:00+1sw71296100 0.8 1015702
12:00+1wsw61098100 2.8 1014483
15:00+4w6983100 3.8 1014921
18:00+3w51080100 0.7 1015543
21:000wnw5108283 0.7 1018405
10 march, wed
wed1000:00−1nw36888 0.0 1019248
03:00−2wnw23815 0.0 1021103
06:00−2wnw247673 0.0 1022188
09:00−1n456782 0.0 1024731
12:00+1n334958 0.0 10241236
15:00+2nne444542 0.0 10241410
18:00−1ne466049 0.0 1023255
21:00−3ene596337 0.0 1024423